Regional Weather Roundup
Issued by NWS

Home | Current Version | Previous Version | Graphics & Text | Print | Product List | Glossary On
Versions: 1 2 3 4 5 6 7 8 9 10 11 12 13 14 15 16 17 18 19 20 21 22 23 24 25 26 27 28 29 30 31 32 33 34 35 36 37 38 39 40 41 42 43 44 45 46 47 48 49 50
000
ASUS43 KLMK 250010
RWRKY
KENTUCKY REGIONAL WEATHER ROUNDUP
NATIONAL WEATHER SERVICE LOUISVILLE KY
700 PM EST FRI FEB 24 2017

NOTE "FAIR" INDICATES FEW OR NO CLOUDS BELOW 12,000 FEET
WITH NO SIGNIFICANT WEATHER AND/OR OBSTRUCTIONS TO VISIBILITY.

KYZ001>023-026-027-061>063-070>075-250100-
WESTERN AND SOUTH CENTRAL KENTUCKY

CITY           SKY/WX    TMP DP  RH WIND       PRES   REMARKS
PADUCAH        LGT RAIN  61  56  83 W14       29.65R
HENDERSON      CLOUDY    63  52  67 SW21      29.61S
OWENSBORO      CLOUDY    66  55  67 W15G28    29.61R
HOPKINSVILLE   CLOUDY    66  53  61 SW17G24   29.65S
BOWLING GREEN  CLOUDY    71  53  52 W20G29    29.62R
GLASGOW        PTCLDY    73  51  45 S13       29.61F
$$

KYZ024-025-028>034-038-045-046-053-250100-
NORTH CENTRAL KENTUCKY

CITY           SKY/WX    TMP DP  RH WIND       PRES   REMARKS
LOUISVILLE/SDF TSTM      60  56  86 SW14G21   29.57R
LOUISVILLE/LOU TSTM      60  55  83 SW12G28   29.57R VSB 1
FORT KNOX      TSTM      63  57  82 S15G36    29.55S VSB 1
$$

KYZ035>037-039>044-047>052-055>060-089>105-250100-
NORTHEAST KENTUCKY

CITY           SKY/WX    TMP DP  RH WIND       PRES   REMARKS
LEXINGTON      PTCLDY    71  51  49 S13       29.58F
COVINGTON      CLOUDY    72  52  49 S15G23    29.53F
FRANKFORT      CLOUDY    74  49  41 SW12      29.56F
$$

KYZ054-064>069-076>088-106>120-250100-
SOUTHEAST KENTUCKY

CITY           SKY/WX    TMP DP  RH WIND       PRES   REMARKS
JACKSON        CLEAR     72  48  42 VRB7G17   29.67R
LONDON         PTCLDY    71  48  43 SW8       29.68R
SOMERSET       MOCLDY    70  50  49 S7        29.67S
MIDDLESBORO    CLEAR     72  51  48 S10G18    29.70R
MONTICELLO     CLOUDY    72  54  53 VRB6      29.68R
$$




USA.gov is the U.S. government's official web portal to all federal, state and local government web resources and services.